GW5568 Weather Reports


time (UTC)temp
F
wind
direction
speed
knots
gust
knots
rain 1hr
in
rain 24hr
in
rain mn
in
humidity
%
barometer
mb
20260507104601 55 0 0.0 0.0 0.00 0.00 0.00 75 1020.6
20260507103053 55 0 0.0 0.0 0.00 0.00 0.00 76 1020.7
20260507101557 55 0 0.0 0.0 0.00 0.00 0.00 76 1020.7
20260507100100 55 0 0.0 0.0 0.00 0.00 0.00 77 1020.8
20260507094605 55 0 0.0 0.0 0.00 0.00 0.00 76 1020.9
20260507093056 56 0 0.0 0.0 0.00 0.00 0.00 77 1020.9
20260507091557 56 0 0.0 0.0 0.00 0.00 0.00 78 1021.0
20260507090057 57 0 0.0 0.0 0.00 0.00 0.00 79 1021.1
20260507084559 57 0 0.0 0.0 0.00 0.00 0.00 79 1021.2
20260507083053 57 0 0.0 0.0 0.00 0.00 0.00 79 1021.1
20260507081552 57 0 0.0 0.0 0.00 0.00 0.00 79 1021.2
20260507080056 57 0 0.0 0.0 0.00 0.00 0.00 79 1021.1
20260507074552 57 0 0.0 0.0 0.00 0.00 0.00 79 1021.1
20260507073058 57 0 0.0 0.0 0.00 0.00 0.00 79 1021.0
20260507071554 58 0 0.0 0.0 0.00 0.00 0.00 78 1020.9
20260507070104 58 0 0.0 0.0 0.00 0.00 0.00 78 1021.0
20260507064553 58 0 0.0 0.0 0.00 0.00 0.00 78 1021.0
20260507063056 58 0 0.0 0.0 0.00 0.00 0.00 78 1021.1
20260507061552 59 0 0.0 0.0 0.00 0.00 0.00 77 1021.0
20260507060053 59 0 0.0 0.0 0.00 0.00 0.00 78 1021.0
20260507054552 59 0 0.0 0.0 0.00 0.00 0.00 77 1020.9
20260507053052 59 0 0.0 0.0 0.00 0.00 0.00 77 1021.0
20260507051559 59 0 0.0 0.0 0.00 0.00 0.00 79 1021.0
20260507050110 59 0 0.0 0.9 0.00 0.00 0.00 79 1020.9
20260507044557 59 0 0.0 0.9 0.00 0.00 0.00 77 1020.8
20260507043054 60 0 0.0 0.0 0.00 0.00 0.00 77 1020.7
20260507041553 60 0 0.0 0.0 0.00 0.00 0.00 76 1020.7
20260507040103 61 0 0.0 1.7 0.00 0.00 0.00 75 1020.5
20260507034559 62 0 0.0 0.0 0.00 0.00 0.00 74 1020.2
20260507033055 62 0 0.0 0.0 0.00 0.00 0.00 73 1020.1
20260507031554 63 0 0.0 0.9 0.00 0.00 0.00 73 1019.8
20260507030052 64 0 0.0 0.9 0.00 0.00 0.00 72 1019.6
20260507024552 65 0 0.0 0.0 0.00 0.00 0.00 69 1019.5
20260507023052 65 0 0.0 0.0 0.00 0.00 0.00 68 1019.4
20260507021559 66 0 0.0 0.0 0.00 0.00 0.00 68 1019.4
20260507020057 67 0 0.0 0.0 0.00 0.00 0.00 67 1019.4
20260507014558 68 0 0.0 0.0 0.00 0.00 0.00 66 1019.3
20260507013053 70 0 0.0 0.0 0.00 0.00 0.00 63 1019.2
20260507011557 72 0 0.0 0.0 0.00 0.00 0.00 61 1019.1
20260507010054 73 0 0.0 0.0 0.00 0.00 0.00 60 1019.1
20260507004556 73 0 0.0 0.9 0.00 0.00 0.00 60 1019.0
20260507003057 72 0 0.0 0.0 0.00 0.00 0.00 62 1018.9
20260507001603 71 0 0.0 0.9 0.00 0.00 0.00 64 1019.1
20260507000058 70 0 0.0 0.9 0.00 0.00 0.00 67 1018.9
20260506234624 70 0 0.0 0.9 0.00 0.00 0.00 69 1018.9
20260506233055 70 0 0.0 0.0 0.00 0.00 0.00 65 1019.1
20260506231556 70 0 0.0 1.7 0.00 0.00 0.00 67 1019.3
20260506230059 70 0 0.0 0.9 0.00 0.00 0.00 68 1019.6
20260506224552 69 0 0.0 0.9 0.00 0.00 0.00 69 1019.7
20260506223058 68 0 0.0 1.7 0.00 0.00 0.00 70 1019.8
20260506221554 68 0 0.0 0.9 0.00 0.00 0.00 69 1019.9
20260506220058 68 0 0.0 0.0 0.00 0.00 0.00 69 1019.7
20260506214551 67 0 0.0 0.9 0.00 0.00 0.00 71 1020.0
20260506213053 67 0 0.0 0.0 0.00 0.00 0.00 72 1020.2
20260506211552 66 0 0.0 0.9 0.00 0.00 0.00 74 1020.3
20260506210054 65 0 0.0 5.2 0.00 0.00 0.00 76 1020.3
20260506204558 64 0 0.0 0.9 0.00 0.00 0.00 76 1020.3
20260506203052 64 0 0.0 0.9 0.00 0.00 0.00 78 1020.6
20260506201557 63 0 0.0 0.0 0.00 0.00 0.00 78 1020.7
20260506200108 63 0 0.0 0.9 0.00 0.00 0.00 77 1020.7
20260506194606 62 0 0.0 0.9 0.00 0.00 0.00 79 1020.8
20260506193053 62 0 0.0 0.9 0.00 0.00 0.00 80 1020.8
20260506191555 62 0 0.0 0.9 0.00 0.00 0.00 80 1020.7
20260506190054 61 0 0.0 0.9 0.00 0.00 0.00 80 1020.7
20260506184605 61 0 0.0 0.9 0.00 0.00 0.00 81 1020.8
20260506183104 61 0 0.0 0.0 0.00 0.00 0.00 81 1020.7
20260506181559 60 0 0.0 0.9 0.00 0.00 0.00 81 1020.9
20260506180100 60 0 0.0 1.7 0.00 0.00 0.00 81 1020.8
20260506174556 60 0 0.0 0.9 0.00 0.00 0.00 82 1020.6
20260506173104 59 0 0.0 0.9 0.00 0.00 0.00 82 1020.6
20260506171600 59 0 0.0 0.9 0.00 0.00 0.00 82 1020.7
20260506170056 59 0 0.0 0.9 0.00 0.00 0.00 82 1020.5
20260506164559 58 0 0.0 0.9 0.00 0.00 0.00 83 1020.6
20260506163056 58 0 0.0 0.0 0.00 0.00 0.00 82 1020.6
20260506161607 58 0 0.0 0.9 0.00 0.00 0.00 83 1020.5
20260506160059 57 0 0.0 0.0 0.00 0.00 0.00 85 1019.9
20260506154558 57 0 0.0 0.0 0.00 0.00 0.00 85 1020.3
20260506153055 56 0 0.0 0.9 0.00 0.00 0.00 86 1020.7
20260506151608 56 0 0.0 0.0 0.00 0.00 0.00 86 1020.6
20260506150053 56 0 0.0 0.0 0.00 0.00 0.00 85 1020.8
20260506144552 56 0 0.0 0.0 0.00 0.00 0.00 87 1020.6
20260506143056 56 0 0.0 0.0 0.00 0.00 0.00 87 1019.8
20260506141554 56 0 0.0 0.0 0.00 0.00 0.00 88 1019.5
20260506140105 55 0 0.0 0.0 0.00 0.00 0.00 89 1019.6
20260506134558 55 0 0.0 0.0 0.00 0.00 0.00 89 1019.6
20260506133058 55 0 0.0 0.0 0.00 0.00 0.00 89 1019.6
20260506131557 55 0 0.0 0.9 0.00 0.00 0.00 89 1019.5
20260506130120 56 0 0.0 0.9 0.00 0.00 0.00 88 1019.3
20260506124553 56 0 0.0 0.9 0.00 0.00 0.00 88 1019.3
20260506123053 57 0 0.0 0.0 0.00 0.00 0.00 86 1019.4
20260506121555 57 0 0.0 0.0 0.00 0.00 0.00 87 1019.3
20260506114555 57 0 0.0 0.9 0.00 0.00 0.00 87 1019.0
20260506113105 57 0 0.0 0.9 0.00 0.00 0.00 86 1018.7
20260506111551 57 0 0.0 0.9 0.00 0.00 0.00 85 1018.5